Content
SEND FEEDBACK

Daily
Averages
Monthly
Summary
United States of America

WILMINGTON, NORTH CAROLINA


Home > North America > United States > North Carolina
Elevation: 21 meters     Latitude: 34 16N     Longitude: 077 54W

WEATHER
 
SELECT A DAY
Number of Records: 209,081;   Date Range: 1/1/95 - 9/16/14
 
SHARE

PRINT THIS DATA

[ ← Previous Day ]
WEATHER ALMANAC - 7 MAY, 2013
[ Next Day → ]
[ °F ]   °C
Weather ElementAverageHighLow
Temperature17.2 °C21.7 °C (12:53 pm)12.8 °C (1:53 am)
Dewpoint10.4 °C12.8 °C (10:53 pm)7.8 °C (2:53 pm)
Humidity67.3 %93 % (1:53 am)41 % (2:53 pm)
Barometer1013.5 hPa1015.2 hPa (10:53 pm)1011.9 hPa (2:53 am)
Wind Speed10.3 km/h29.6 km/h (3:53 pm)
Wind Gust37 km/h (3:53 pm)
Weather ElementAverage
Visibility15.9 km
Wind DirectionSSE (150.9 °)

Weather ElementTotal
Precipitation---
Heating Degree Days1.1 (Base 18.3)
Growing Degree Days7.3 (Base 10)
Averaged from 23 records on 7 May, 2013
WEATHER CONDITIONS BREAKOUT
WIND DIRECTION BREAKOUT
WEATHER BY HOUR - 7 MAY, 2013
[ °F ]   °C
Local TimeTemperatureDewpointHumidityBarometerVisibilityWind DirectionWind SpeedGust SpeedPrecipitationEventsConditions
1:53 AM12.8 °C11.7 °C93 %1012.2 hPa12.9 kmCalmClear
2:53 AM12.8 °C11.7 °C93 %1011.9 hPa16.1 kmCalmClear
3:53 AM14 °C12 °C88 %1011.9 hPa16.1 kmSW (220°)9.3 km/hClear
4:53 AM13.3 °C11.1 °C87 %1011.9 hPa16.1 kmWSW (250°)11.1 km/hClear
5:53 AM12.8 °C10.6 °C86 %1012.2 hPa16.1 kmWest (260°)7.4 km/hScattered Clouds
6:53 AM12.8 °C10.6 °C86 %1012.9 hPa16.1 kmCalmClear
7:53 AM15.6 °C11.1 °C75 %1013.2 hPa16.1 kmCalmClear
8:53 AM16.1 °C10.6 °C70 %1013.9 hPa16.1 kmCalmScattered Clouds
9:53 AM18.3 °C10.6 °C61 %1014.2 hPa16.1 kmCalmScattered Clouds
10:53 AM20 °C9.4 °C50 %1014.6 hPa16.1 kmWSW (240°)9.3 km/hOvercast
11:53 AM20.6 °C8.3 °C45 %1014.6 hPa16.1 kmSouth (180°)14.8 km/hClear
12:53 PM21.7 °C8.3 °C42 %1013.9 hPa16.1 kmSW (220°)18.5 km/h31.5 km/hScattered Clouds
1:53 PM20.6 °C9.4 °C49 %1013.9 hPa16.1 kmSSW (200°)24.1 km/h29.6 km/hOvercast
2:53 PM21.7 °C7.8 °C41 %1013.2 hPa16.1 kmSSW (200°)18.5 km/h27.8 km/h0 mmClear
3:53 PM21.7 °C7.8 °C41 %1012.9 hPa16.1 kmSW (230°)29.6 km/h37 km/hScattered Clouds
4:53 PM21.7 °C8.9 °C44 %1012.9 hPa16.1 kmSW (230°)14.8 km/h29.6 km/hPartly Cloudy
5:53 PM20.6 °C8.9 °C47 %1012.9 hPa16.1 kmSW (230°)20.4 km/hClear
6:53 PM19.4 °C10 °C54 %1013.2 hPa16.1 kmSW (220°)18.5 km/h31.5 km/hClear
7:53 PM17.2 °C11.1 °C67 %1013.9 hPa16.1 kmSouth (190°)18.5 km/hClear
8:53 PM16.1 °C11.7 °C75 %1014.6 hPa16.1 kmSouth (180°)5.6 km/hPartly Cloudy
9:53 PM15.6 °C12.2 °C80 %1014.9 hPa16.1 kmSSW (200°)7.4 km/hClear
10:53 PM15.6 °C12.8 °C83 %1015.2 hPa16.1 kmSW (220°)7.4 km/hClear
11:53 PM14.4 °C12.8 °C90 %1015.2 hPa16.1 kmCalmClear
Hourly data recorded from KILM, located 0 kilometers away from Wilmington, North Carolina







STORIES FROM OUR PARTNERS